Flag for Romania Weather past 2 weeks in Bucharest, Romania

Now
72 °F

Scattered clouds.


Feels Like: 72 °F
Forecast: 67 / 84 °F
Wind: 6 mph from Northwest

Location: Bucharest / Imh

Current Time: Jul 22, 2014 at 8:49:03 PM

Latest Report: Jul 22, 2014 at 7:30 PM


Visibility: N/A

Pressure: 29.74 "Hg

Humidity: 78%

Dew point: 64 °F

Location of BucharestLocation

Historic Weather in Bucharest — Graph

°F

Bucharest temperature yesterday

Maximum temperature yesterday: 90 °F (at 3:00 PM)
Minimum temperature yesterday: 64 °F (at 4:00 AM)
Average temperature yesterday: 79 °F

Past Weeks' High & Low Weather Summary

 TemperatureHumidityPressure
High91 °F (Jul 22, 4:00 PM)100% (Jul 10, 2:30 AM)30.01 "Hg (Jul 10, 2:30 AM)
Low61 °F (Jul 12, 5:30 AM)22% (Jul 16, 2:30 PM)29.56 "Hg (Jul 11, 6:00 PM)
Average75 °F67%29.85 "Hg
* Reported Jul 7 7:00 PM — Jul 22 7:30 PM, Bucharest, Weather by CustomWeather, © 2014

Note: Actual official high and low records may vary slightly from our data, if they occured in-between our weather recording intervals... More about our weather records

Advertising

Bucharest weather history for previous 24 hours

 ConditionsComfort  
Time TempWeatherWind HumidityBarometerVisibility
7:30 PM
Jul 22
72 °FScattered clouds.6 mph78%29.74 "HgN/A
7:00 PM73 °FThunderstorms. Broken clouds.5 mph69%29.77 "Hg1 mi
6:30 PM77 °FThunderstorms. Partly sunny.9 mph69%29.77 "Hg4 mi
6:00 PM82 °FThunderstorms. Scattered clouds.9 mph58%29.74 "HgN/A
5:30 PM84 °FThunderstorms. Scattered clouds.7 mph55%29.74 "HgN/A
5:00 PM86 °FThunderstorms. Scattered clouds.9 mph49%29.74 "HgN/A
4:30 PM86 °FScattered clouds.12 mph49%29.74 "HgN/A
4:00 PM91 °FPassing clouds.5 mph28%29.74 "HgN/A
3:30 PM90 °FPassing clouds.5 mph29%29.74 "HgN/A
3:00 PM88 °FPassing clouds.7 mph33%29.74 "HgN/A
2:30 PM90 °FPassing clouds.9 mph33%29.77 "HgN/A
2:00 PM88 °FPassing clouds.9 mph38%29.77 "HgN/A
1:30 PM88 °FPassing clouds.12 mph38%29.77 "HgN/A
1:00 PM88 °FPassing clouds.7 mph43%29.77 "HgN/A
12:30 PM88 °FPassing clouds.5 mph43%29.80 "HgN/A
12:00 PM86 °FPassing clouds.5 mph52%29.80 "HgN/A
11:30 AM84 °FPassing clouds.7 mph51%29.77 "HgN/A
11:00 AM82 °FPassing clouds.7 mph55%29.80 "HgN/A
10:30 AM81 °FSunny.7 mph62%29.80 "Hg10 mi
10:00 AM81 °FPassing clouds.5 mph62%29.80 "HgN/A
9:30 AM77 °FClear.5 mph74%29.80 "Hg5 mi
9:00 AM75 °FClear.5 mph78%29.80 "Hg5 mi
8:30 AM75 °FClear.5 mph78%29.80 "Hg4 mi
8:00 AM73 °FFog.2 mph83%29.80 "Hg3 mi
7:30 AM72 °FFog.No wind88%29.80 "Hg2 mi
7:00 AM70 °FFog.1 mph94%29.77 "Hg2 mi
6:30 AM68 °FFog.1 mph94%29.77 "Hg3 mi
6:00 AM68 °FFog.3 mph94%29.77 "Hg3 mi
5:30 AM68 °FFog.No wind94%29.77 "Hg3 mi
5:00 AM70 °FMild.1 mph88%29.77 "HgN/A
4:30 AM70 °FClear.1 mph88%29.77 "Hg10 mi
4:00 AM70 °FClear.2 mph88%29.77 "Hg10 mi
3:30 AM70 °FClear.1 mph88%29.80 "Hg10 mi
3:00 AM70 °FClear.1 mph88%29.80 "Hg10 mi
2:30 AM72 °FMild.No wind83%29.80 "HgN/A
2:00 AM72 °FClear.No wind83%29.80 "Hg10 mi
1:30 AM73 °FClear.No wind78%29.80 "Hg10 mi
12:30 AM73 °FClear.No wind78%29.80 "Hg10 mi
12:00 AM75 °FClear.No wind74%29.80 "Hg10 mi
11:30 PM
Jul 21
75 °FClear.No wind74%29.80 "Hg10 mi
11:00 PM77 °FClear.No wind69%29.80 "Hg10 mi
10:30 PM79 °FClear.No wind70%29.83 "Hg10 mi
10:00 PM79 °FClear.No wind70%29.80 "Hg10 mi
9:30 PM79 °FSunny.No wind61%29.80 "Hg10 mi
9:00 PM84 °FSunny.No wind51%29.80 "Hg10 mi
8:30 PM88 °FSunny.No wind40%29.80 "Hg10 mi
8:00 PM88 °FSunny.2 mph38%29.80 "Hg10 mi
Weather by CustomWeather, © 2014

See weather overviewHow to use our weather pages